Location: Terra Rouge Observatory
(46.0000°N, 62.7500°W)
Time: 07:25:46
(UTC-03:00)

NOSS 3-1 (A) - Visible Passes

Search period start: 28 May 2017 00:00
Search period end: 07 June 2017 00:00
Orbit: 830 x 1382 km, 63.4° (Epoch: 25 May)

Date Brightness Start Highest point End Pass type
(mag) Time Alt. Az. Time Alt. Az. Time Alt. Az.
28 May 4.8 01:43:14 10° NW 01:49:55 33° WSW 01:51:52 30° SW visible
28 May 5.7 21:16:11 10° NNW 21:21:39 23° NNE 21:27:36 10° ENE visible
28 May 4.5 23:07:05 10° NW 23:14:17 53° NE 23:20:48 16° ESE visible
29 May 4.4 00:58:08 10° NW 01:05:23 48° WSW 01:08:13 36° SSW visible
29 May 4.9 22:22:25 10° NNW 22:29:14 40° NE 22:36:48 10° ESE visible
30 May 4.1 00:13:14 10° NW 00:20:45 69° WSW 00:24:37 35° SSE visible
30 May 5.6 02:06:15 10° WNW 02:10:45 16° WSW 02:12:01 16° WSW visible
30 May 5.3 21:37:43 10° NNW 21:44:03 32° NNE 21:51:02 10° E visible
30 May 4.0 23:28:27 10° NW 23:36:00 86° NE 23:41:04 27° SE visible
31 May 5.2 01:20:19 10° WNW 01:26:26 26° WSW 01:28:29 23° SW visible
31 May 4.3 22:43:45 10° NW 22:51:07 64° NE 22:57:35 18° SE visible
01 Jun 4.8 00:35:01 10° NW 00:41:58 38° WSW 00:45:00 29° SSW visible
01 Jun 4.7 21:59:04 10° NNW 22:06:09 48° NE 22:14:01 10° ESE visible
01 Jun 4.3 23:50:01 10° NW 23:57:24 56° WSW 00:01:33 30° S visible
02 Jun 5.9 01:44:35 10° W 01:47:08 12° WSW 01:48:59 11° WSW visible
02 Jun 4.1 23:05:10 10° NW 23:12:43 79° SW 23:18:10 24° SSE visible
03 Jun 5.6 00:57:38 10° WNW 01:02:53 20° WSW 01:05:36 17° SW visible
03 Jun 4.1 22:20:25 10° NW 22:27:55 77° NE 22:34:49 16° SE visible
04 Jun 5.2 00:12:01 10° NW 00:18:31 30° WSW 00:22:15 21° SSW visible
04 Jun 4.4 21:35:44 10° NW 21:43:00 57° NE 21:51:07 10° ESE visible
04 Jun 4.7 23:26:51 10° NW 23:34:01 44° WSW 23:38:57 22° S visible
05 Jun 4.3 22:41:55 10° NW 22:49:23 64° WSW 22:55:42 19° SSE visible
06 Jun 5.9 00:35:21 10° WNW 00:39:18 15° WSW 00:43:09 10° SW visible
06 Jun 4.1 21:57:07 10° NW 22:04:40 88° SW 22:12:30 12° SE visible
